User: anonymous   Login
Location: Unspecified
(0.0000°N, 0.0000°E)
Time: 03:15:13
(UTC+00:00)
Language:

DOVE 4 - Orbit

View from above orbital plane
View from above orbital plane
View from above satellite
View from above satellite

Ground track
Ground track

The orbit data is extracted from the following two-line orbital elements,

1 39430U 13066Q   18202.86625306  .00000146  00000-0  35659-4 0  9997
2 39430  97.6997 177.2489 0150419 220.6873 138.3014 14.59100071248219
Epoch (UTC): 21 July 2018 20:47:24
Eccentricity: 0.0150419
inclination: 97.6997°
perigee height: 589 km
apogee height: 802 km
right ascension of ascending node: 177.2489°
argument of perigee: 220.6873°
revolutions per day: 14.59100071
mean anomaly at epoch: 138.3014°
orbit number at epoch: 24821

The dashed part of the orbit path shows where the satellite is in the earth's shadow,  

DLR